Theta_e
280 281 280 280 280 282 283 285 285 287 289 291 292 292 292 292 291 292 294 295 296 296 296 297 298 299 301 303 310 313 311 311 311 311 310 310 310 310 310 309 307 307
280 280 280 279 279 281 282 284 283 284 285 290 291 292 292 292 292 292 293 294 294 295 296 296 297 298 300 301 305 311 311 310 310 310 309 309 310 310 310 309 307 306
279 279 278 278 278 279 280 281 282 283 284 287 292 292 292 292 292 291 293 293 293 294 294 295 295 296 298 301 303 308 310 310 309 309 309 309 309 309 310 309 307 305
278 278 277 277 277 278 279 280 281 282 283 284 287 292 293 293 291 290 291 291 292 292 293 293 294 295 296 299 303 306 310 310 310 309 308 308 309 309 309 308 306 305
277 277 278 277 277 278 278 278 279 281 282 283 284 290 291 290 290 289 289 290 291 291 291 292 293 294 295 297 301 305 309 310 310 309 308 307 308 308 309 308 305 304
277 277 277 277 277 277 277 277 278 280 282 282 283 287 291 290 289 288 288 288 289 290 290 291 292 292 294 295 299 303 307 309 309 309 308 307 308 308 308 307 306 304
275 276 276 276 276 276 277 277 278 279 281 282 284 285 289 289 289 288 288 288 289 289 289 290 290 291 293 294 296 300 306 308 309 308 307 307 306 307 307 306 305 304
274 274 274 275 275 276 276 277 277 278 279 281 282 284 287 289 289 288 288 288 288 289 289 289 290 290 291 293 295 297 303 308 308 308 307 306 307 306 306 306 305 303
273 273 274 274 274 274 275 277 277 278 279 279 280 282 286 289 290 288 288 288 288 288 288 288 289 289 290 292 293 295 299 305 308 307 307 306 305 305 305 305 304 302
272 272 273 273 273 274 274 275 277 277 278 278 279 281 283 286 289 290 289 287 287 288 288 288 288 289 289 290 292 293 296 302 307 307 307 307 306 305 305 305 304 302
271 271 272 272 273 274 274 275 276 276 277 277 278 279 280 283 286 290 289 288 288 287 288 288 288 288 289 289 290 292 294 298 305 307 307 307 306 306 303 305 304 303
270 270 271 271 272 273 274 274 275 276 276 277 278 278 279 281 284 288 289 289 288 288 287 288 288 288 288 289 289 291 293 296 303 306 307 307 306 306 305 305 304 303
269 270 270 271 272 273 273 274 275 275 276 276 277 278 278 279 281 284 287 288 288 287 287 287 288 288 288 289 289 290 292 294 300 306 306 306 306 305 305 305 305 303
269 269 270 270 271 272 273 273 274 275 276 276 277 277 277 278 280 281 284 286 287 287 287 287 287 288 288 288 289 290 291 293 298 304 304 305 304 304 304 304 304 303
269 269 269 270 270 271 272 273 274 275 276 276 276 276 277 278 278 279 280 282 284 285 286 286 287 287 288 288 289 289 291 294 297 302 303 303 303 303 304 304 304 304
268 269 269 269 270 270 271 272 272 274 275 275 275 276 277 277 278 279 280 281 282 283 284 286 287 288 288 290 290 289 290 292 295 301 302 302 302 302 302 303 303 304
268 268 268 268 269 269 270 271 272 273 274 275 275 276 276 277 278 278 278 280 282 283 284 285 286 288 289 291 291 292 291 292 293 299 302 302 301 301 301 301 303 303
267 267 267 268 269 269 270 271 272 272 273 274 275 275 276 277 277 278 279 280 281 282 284 285 286 288 290 291 291 292 291 291 293 296 301 302 302 302 302 301 302 302
267 267 266 267 268 269 269 270 271 272 272 273 274 275 276 277 278 278 279 280 282 283 284 285 286 289 290 291 291 292 292 292 292 295 299 300 302 302 302 302 301 301
266 266 266 266 267 268 269 269 269 270 271 272 274 276 276 277 278 278 279 280 281 284 285 286 286 288 290 291 291 291 292 292 292 294 298 301 301 302 302 301 301 300
266 266 265 266 266 266 267 267 267 268 269 270 271 274 276 277 278 278 279 279 280 282 284 286 287 289 290 290 291 291 292 292 292 294 298 300 302 302 302 302 300 301
265 264 265 265 265 265 266 266 267 268 268 270 271 272 274 277 278 279 279 280 282 282 283 284 286 288 290 290 291 291 292 290 291 293 296 298 300 300 301 301 301 300
264 264 264 264 264 264 265 265 266 267 269 270 271 272 274 276 278 279 280 281 282 283 283 284 285 287 290 290 291 291 291 289 290 293 295 296 298 299 300 300 300 299
263 263 263 263 264 264 264 265 266 267 268 269 269 271 272 276 279 279 280 281 282 284 285 285 286 287 289 290 291 291 290 289 291 293 295 296 296 298 299 298 298 295
263 263 263 263 263 264 264 265 266 267 268 269 270 271 272 275 279 279 280 282 284 285 286 286 286 287 289 290 290 291 290 289 291 294 295 295 296 296 297 297 297 294
262 262 263 263 263 264 265 265 266 267 268 268 269 271 273 276 279 280 280 282 284 286 286 286 286 286 287 290 290 291 291 290 292 294 294 294 296 296 295 295 295 295
Wind_Speed
17 14 13 15 17 17 18 18 17 20 17 11 9 8 7 6 5 4 6 6 5 6 8 7 8 8 10 13 16 16 16 18 17 16 17 17 16 17 17 17 15 14
18 14 15 16 16 16 17 17 19 18 21 19 12 9 6 5 5 4 5 7 6 6 7 7 8 8 9 11 14 15 15 17 18 15 17 20 17 18 19 20 18 13
19 18 16 17 17 20 20 19 17 17 17 20 15 9 7 5 6 4 5 6 6 6 7 7 8 8 9 11 13 14 14 17 18 16 17 19 16 16 16 17 14 17
17 16 15 17 18 19 19 19 19 16 16 16 19 11 7 6 6 6 5 7 6 6 6 7 8 8 9 12 13 13 15 16 18 18 18 16 16 17 16 14 15 14
18 19 17 15 15 17 18 19 19 18 17 17 19 17 9 7 7 6 6 7 6 6 6 7 7 8 9 11 12 13 17 16 17 18 17 17 16 16 15 15 16 16
17 17 17 15 15 16 16 19 19 19 18 18 17 18 11 7 8 7 6 7 7 6 6 6 7 8 8 11 12 12 15 15 17 19 18 19 18 15 14 16 17 17
20 18 18 19 21 19 17 16 17 18 17 15 16 15 15 9 7 8 7 7 7 6 6 6 6 7 8 10 11 13 14 15 16 19 20 16 17 19 16 17 18 19
19 18 19 18 20 21 19 16 14 14 16 18 17 16 13 12 10 7 7 7 7 7 6 5 5 7 8 9 11 12 14 14 15 18 19 18 18 18 17 16 16 17
19 19 18 21 21 19 20 17 14 13 14 16 17 17 15 12 11 9 7 7 7 7 6 5 5 6 7 9 11 12 14 14 15 18 19 19 19 20 19 18 18 17
19 18 20 20 19 18 19 19 18 15 13 15 16 15 16 15 14 11 10 7 7 7 6 6 5 5 7 9 11 12 13 15 15 18 19 19 21 21 19 19 19 18
21 20 19 21 21 18 18 18 18 16 14 15 15 16 16 14 14 11 9 7 7 7 7 6 6 5 7 10 11 11 12 15 15 16 19 20 20 20 20 21 21 20
21 20 19 20 20 19 17 17 16 17 16 14 14 16 16 16 14 12 9 9 8 7 7 7 6 6 7 9 11 12 12 13 15 16 17 18 19 19 21 20 21 20
21 20 18 18 18 18 16 15 15 16 17 16 13 14 14 15 16 15 11 10 9 8 7 7 7 7 8 9 11 12 12 13 15 17 18 18 18 20 20 20 21 20
22 21 22 21 18 18 18 16 16 16 16 14 13 14 14 14 16 16 15 11 12 9 7 7 7 8 8 9 10 11 12 13 15 16 17 17 17 19 20 19 19 19
20 21 19 20 20 19 18 17 17 16 16 15 13 13 12 13 14 15 17 16 13 9 8 7 8 9 8 8 9 11 12 12 15 15 17 18 17 18 19 19 18 18
23 20 21 20 21 20 20 20 20 17 16 16 15 15 14 13 12 14 16 17 16 15 12 10 10 8 11 15 13 11 12 12 14 13 15 16 17 17 17 19 20 18
22 23 20 21 20 20 17 16 16 14 16 16 15 14 16 16 14 14 14 14 16 14 13 12 10 10 15 14 17 19 14 12 13 13 14 15 16 17 16 17 17 19
21 20 21 21 17 15 14 17 15 17 16 16 15 16 14 14 15 13 14 14 14 16 15 12 11 12 16 16 17 18 17 13 12 13 13 15 17 17 17 17 18 17
22 23 21 18 18 17 17 15 16 16 17 17 17 15 15 16 16 14 13 14 15 16 15 13 12 13 16 17 17 17 19 17 11 14 13 15 17 18 19 18 17 16
20 20 21 20 17 15 16 16 15 15 17 17 16 14 15 14 15 14 13 14 15 15 13 12 12 14 17 17 17 18 19 17 12 14 13 16 18 18 18 18 19 18
21 21 22 21 20 19 18 18 18 18 18 16 15 16 14 12 12 13 13 14 15 14 13 11 11 17 17 18 17 19 20 17 12 12 12 15 18 19 18 18 18 18
20 21 21 22 21 20 20 20 19 17 18 16 14 14 16 13 12 12 15 15 14 14 14 15 13 21 18 17 18 19 21 12 11 11 12 13 15 18 18 17 17 18
21 22 22 22 21 21 20 18 18 17 16 13 14 14 15 15 13 12 13 14 16 14 14 14 13 15 16 18 19 20 15 10 10 10 11 13 14 16 17 17 17 18
22 22 23 23 22 22 22 21 19 16 17 15 15 15 15 15 12 10 12 14 16 16 14 13 13 14 17 18 19 19 16 11 10 10 12 12 12 14 14 14 18 25
21 22 22 22 23 22 20 21 19 17 16 14 14 14 15 15 14 12 13 14 14 15 17 16 13 13 17 19 19 20 15 10 11 10 12 13 12 12 13 13 15 19
21 22 22 21 22 22 19 17 16 16 16 15 14 13 14 14 13 11 13 13 13 11 10 11 12 12 13 20 19 20 21 13 10 11 13 14 13 13 12 12 14 15
Wind_Direction
311 305 313 316 311 307 302 304 308 307 296 277 264 252 239 219 199 217 256 270 266 279 286 289 293 290 292 287 269 222 193 191 188 184 188 185 186 184 182 177 177 178
306 309 314 312 310 305 301 306 308 304 304 290 262 245 229 199 202 207 244 265 271 272 281 285 285 284 283 281 277 251 204 187 187 184 185 187 185 183 183 179 177 167
309 308 308 312 310 307 308 306 303 302 301 303 281 248 230 198 204 194 230 254 265 272 280 285 288 289 287 280 277 262 226 189 187 183 184 188 185 184 182 176 173 173
306 306 310 309 307 306 308 306 303 301 303 304 301 265 226 208 189 198 216 245 256 265 276 284 289 294 293 286 280 266 238 203 185 181 185 185 184 181 179 173 175 176
311 305 300 301 302 304 305 302 303 302 301 299 303 291 245 204 192 192 204 236 242 258 271 283 290 293 294 290 282 268 240 212 189 181 181 184 184 182 178 172 172 174
306 307 305 302 304 301 300 301 303 302 300 301 300 304 271 223 193 193 197 222 234 241 261 276 287 296 296 293 290 275 250 216 189 181 181 181 180 180 175 176 173 174
309 309 310 309 304 297 292 294 297 299 300 299 301 301 302 272 224 199 197 210 225 230 246 262 283 295 298 293 290 284 262 227 191 183 180 179 176 176 175 179 177 176
310 309 306 303 302 300 293 291 291 298 303 306 302 301 301 295 270 232 201 201 215 229 232 246 266 286 294 293 290 286 277 235 201 184 180 174 174 178 177 174 179 176
308 306 304 302 301 301 300 295 293 298 303 301 302 300 297 291 276 255 232 202 208 221 228 239 250 277 290 292 290 286 283 258 211 186 181 174 176 180 179 175 174 177
304 304 303 300 298 297 297 302 303 303 302 298 300 301 302 303 298 269 239 220 210 218 229 237 248 264 284 287 287 288 287 275 234 193 181 179 178 179 177 176 177 177
306 305 302 300 298 296 295 297 298 299 298 297 300 300 299 296 293 280 255 238 225 221 231 241 244 254 276 286 288 287 285 281 248 209 185 181 179 178 177 178 178 180
308 305 302 299 297 295 293 295 294 294 295 295 296 296 299 296 290 281 262 252 241 231 229 241 246 249 263 276 285 288 286 281 262 216 192 182 179 177 178 179 178 181
306 304 301 298 297 294 294 294 294 293 291 291 292 291 293 296 295 289 269 248 243 233 232 236 248 253 261 269 278 283 281 279 269 226 194 181 181 178 178 180 180 179
307 304 303 301 298 297 295 293 292 290 288 286 289 291 293 293 297 299 297 277 251 233 228 234 249 259 259 264 269 277 278 274 273 233 197 181 180 180 178 180 180 180
305 303 299 298 297 294 292 292 292 292 293 289 287 287 286 284 285 288 286 283 280 269 261 252 254 255 255 254 264 272 275 276 275 245 202 180 179 180 179 177 179 182
302 303 301 298 296 294 294 295 294 292 287 283 280 280 281 281 277 278 279 278 275 268 263 262 257 255 251 248 247 257 272 277 279 254 209 183 177 181 181 179 177 182
304 301 298 296 296 292 289 286 285 284 283 279 276 276 279 281 275 271 271 275 274 269 262 257 255 251 247 240 247 253 260 270 271 265 220 188 179 180 182 180 182 183
302 302 298 296 291 285 286 287 283 280 276 276 275 274 272 272 271 265 267 265 264 265 261 255 252 246 241 241 245 253 258 262 267 265 233 195 180 183 183 181 182 182
300 298 300 295 290 289 288 288 286 287 288 287 280 272 269 267 267 262 256 262 261 257 252 247 247 239 239 242 244 249 256 259 261 259 237 204 185 184 183 182 181 179
304 301 296 295 293 290 289 286 285 282 283 283 279 268 263 264 266 268 269 266 264 262 251 242 239 242 243 243 243 247 256 260 255 253 240 207 188 183 183 181 179 179
303 303 300 297 294 290 288 287 285 285 283 279 281 283 272 261 259 261 259 255 255 258 260 252 244 243 243 242 244 249 256 261 254 252 239 214 191 180 181 181 179 178
304 296 294 294 293 291 288 287 286 279 276 275 274 274 273 269 260 258 264 263 255 247 247 248 248 249 242 239 244 250 257 258 254 246 235 213 196 179 177 179 176 176
301 298 296 295 292 288 286 283 280 276 273 272 271 270 269 260 252 250 255 259 257 247 239 242 244 240 234 241 247 251 254 252 248 241 226 209 197 182 177 176 176 174
308 304 300 296 292 286 282 279 276 274 275 272 273 275 276 273 260 251 249 254 255 247 237 239 242 240 239 241 245 247 245 246 242 233 215 201 196 183 176 174 177 175
301 292 286 283 282 279 276 278 276 270 270 268 266 266 266 267 261 259 263 260 254 241 230 232 240 243 239 244 245 248 248 240 238 224 210 197 186 183 177 172 175 178
301 299 294 289 285 282 275 265 264 267 266 265 266 264 268 268 264 258 258 252 246 238 230 231 240 244 240 246 247 247 246 238 229 217 201 192 185 178 175 174 173 177